Tracking 25963 objects as of 12-Aug-2022
HD Live streaming from Space Station
objects crossing your sky now

GLOBALSTAR M031

Track GLOBALSTAR M031 now!
10-day predictions
GLOBALSTAR M031 is classified as:


NORAD ID: 25946
Int'l Code: 1999-058D
Perigee: 1,616.5 km
Apogee: 1,617.9 km
Inclination: 52.0 °
Period: 118.4 minutes
Semi major axis: 7988 km
RCS: 2.5697 m2 (large)
Launch date: October 18, 1999
Source: Globalstar (GLOB)
Launch site: TYURATAM MISSILE AND SPACE COMPLEX (TTMTR)
aabbcc
Your satellite tracking list
Your tracking list is empty




NASA's NSSDC Master Catalog

Two Line Element Set (TLE):
1 25946U 99058D   22224.21402257  .00000006  00000-0  97650-3 0  9998
2 25946  51.9962 123.7192 0000875 235.7873 293.9075 12.15981688 38027
Source of the keplerian elements: AFSPC